| time (UTC) | temp F | wind direction | speed MPH | gust MPH | rain 1hr in | rain 24hr in | rain mn in | humidity % | barometer mb |
| 20260902075023 | 80 | 169 | 0.0 | 5.0 | 0.00 | 0.00 | 0.00 | 63 | 1009.2 |
| 20260902074742 | 81 | 170 | 0.0 | 5.0 | 0.00 | 0.00 | 0.00 | 62 | 1009.3 |
| 20260902074023 | 81 | 165 | 0.0 | 0.0 | 0.00 | 0.00 | 0.00 | 62 | 1009.2 |
| 20260902074011 | 81 | 166 | 0.0 | 0.0 | 0.00 | 0.00 | 0.00 | 61 | 1009.3 |
| 20260902073019 | 81 | 171 | 0.0 | 0.0 | 0.00 | 0.00 | 0.00 | 61 | 1009.3 |
| 20260902072520 | 81 | 170 | 0.0 | 0.0 | 0.00 | 0.00 | 0.00 | 60 | 1009.3 |
| 20260902072239 | 82 | 170 | 0.0 | 0.0 | 0.00 | 0.00 | 0.00 | 59 | 1009.2 |
| 20260902071525 | 82 | 167 | 0.0 | 0.0 | 0.00 | 0.00 | 0.00 | 58 | 1009.3 |
| 20260902071015 | 82 | 168 | 0.0 | 0.0 | 0.00 | 0.00 | 0.00 | 57 | 1009.2 |
| 20260902070514 | 83 | 168 | 0.0 | 0.0 | 0.00 | 0.00 | 0.00 | 57 | 1009.2 |
| 20260902070011 | 83 | 168 | 0.0 | 0.0 | 0.00 | 0.00 | 0.00 | 56 | 1009.2 |
| 20260902065509 | 83 | 169 | 0.0 | 1.0 | 0.00 | 0.00 | 0.00 | 56 | 1009.2 |
| 20260902065007 | 83 | 169 | 0.0 | 1.0 | 0.00 | 0.00 | 0.00 | 56 | 1009.2 |
| 20260902064507 | 83 | 169 | 0.0 | 0.0 | 0.00 | 0.00 | 0.00 | 56 | 1009.2 |
| 20260902064008 | 83 | 169 | 0.0 | 0.0 | 0.00 | 0.00 | 0.00 | 55 | 1009.2 |
| 20260902063505 | 83 | 169 | 0.0 | 0.0 | 0.00 | 0.00 | 0.00 | 55 | 1009.2 |
| 20260902063016 | 83 | 169 | 0.0 | 0.0 | 0.00 | 0.00 | 0.00 | 56 | 1009.3 |
| 20260902062502 | 83 | 167 | 0.0 | 0.0 | 0.00 | 0.00 | 0.00 | 56 | 1009.2 |
| 20260902062003 | 83 | 166 | 0.0 | 0.0 | 0.00 | 0.00 | 0.00 | 56 | 1009.2 |
| 20260902061502 | 82 | 166 | 0.0 | 0.0 | 0.00 | 0.00 | 0.00 | 57 | 1009.1 |
| 20260902061436 | 82 | 166 | 0.0 | 0.0 | 0.00 | 0.00 | 0.00 | 57 | 1009.2 |
| 20260902060712 | 82 | 167 | 0.0 | 0.0 | 0.00 | 0.00 | 0.00 | 57 | 1009.2 |
| 20260902055943 | 82 | 167 | 0.0 | 1.0 | 0.00 | 0.00 | 0.00 | 57 | 1009.1 |
| 20260902055437 | 82 | 167 | 0.0 | 1.0 | 0.00 | 0.00 | 0.00 | 57 | 1009.1 |
| 20260902054931 | 82 | 166 | 0.0 | 0.0 | 0.00 | 0.00 | 0.00 | 57 | 1009.1 |
| 20260902054432 | 82 | 167 | 0.0 | 0.0 | 0.00 | 0.00 | 0.00 | 57 | 1009.1 |
| 20260902053932 | 82 | 166 | 0.0 | 0.0 | 0.00 | 0.00 | 0.00 | 57 | 1009.1 |
| 20260902053432 | 83 | 170 | 0.0 | 0.0 | 0.00 | 0.00 | 0.00 | 56 | 1008.9 |
| 20260902052932 | 83 | 170 | 0.0 | 0.0 | 0.00 | 0.00 | 0.00 | 56 | 1008.9 |
| 20260902052431 | 83 | 170 | 0.0 | 0.0 | 0.00 | 0.00 | 0.00 | 56 | 1008.9 |
| 20260902051932 | 83 | 170 | 0.0 | 0.0 | 0.00 | 0.00 | 0.00 | 55 | 1008.9 |
| 20260902051431 | 83 | 170 | 0.0 | 0.0 | 0.00 | 0.00 | 0.00 | 55 | 1009.0 |
| 20260902050929 | 83 | 170 | 0.0 | 0.0 | 0.00 | 0.00 | 0.00 | 56 | 1009.0 |
| 20260902050758 | 83 | 170 | 0.0 | 0.0 | 0.00 | 0.00 | 0.00 | 56 | 1009.0 |
| 20260902050749 | 83 | 170 | 0.0 | 0.0 | 0.00 | 0.00 | 0.00 | 55 | 1009.0 |
| 20260902050528 | 83 | 170 | 0.0 | 0.0 | 0.00 | 0.00 | 0.00 | 56 | 1009.0 |
| 20260902050520 | 83 | 170 | 0.0 | 0.0 | 0.00 | 0.00 | 0.00 | 55 | 1009.0 |
| 20260902044927 | 83 | 170 | 0.0 | 0.0 | 0.00 | 0.00 | 0.00 | 55 | 1009.0 |
| 20260902044427 | 83 | 170 | 0.0 | 0.0 | 0.00 | 0.00 | 0.00 | 55 | 1009.0 |
| 20260902043928 | 83 | 170 | 0.0 | 0.0 | 0.00 | 0.00 | 0.00 | 55 | 1009.0 |
| 20260902043427 | 83 | 170 | 0.0 | 0.0 | 0.00 | 0.00 | 0.00 | 55 | 1009.0 |
| 20260902042927 | 83 | 170 | 0.0 | 0.0 | 0.00 | 0.00 | 0.00 | 55 | 1009.1 |
| 20260902042427 | 83 | 170 | 0.0 | 0.0 | 0.00 | 0.00 | 0.00 | 54 | 1009.1 |
| 20260902042146 | 83 | 170 | 0.0 | 0.0 | 0.00 | 0.00 | 0.00 | 55 | 1009.0 |
| 20260902041647 | 83 | 170 | 0.0 | 0.0 | 0.00 | 0.00 | 0.00 | 55 | 1009.0 |
| 20260902040927 | 83 | 170 | 0.0 | 0.0 | 0.00 | 0.00 | 0.00 | 55 | 1009.0 |
| 20260902040427 | 83 | 170 | 0.0 | 0.0 | 0.00 | 0.00 | 0.00 | 55 | 1009.0 |
| 20260902035927 | 83 | 170 | 0.0 | 0.0 | 0.00 | 0.00 | 0.00 | 55 | 1009.0 |
| 20260902035427 | 83 | 170 | 0.0 | 0.0 | 0.00 | 0.00 | 0.00 | 55 | 1009.0 |
| 20260902035149 | 83 | 170 | 0.0 | 0.0 | 0.00 | 0.00 | 0.00 | 55 | 1009.0 |
| 20260902034426 | 83 | 170 | 0.0 | 0.0 | 0.00 | 0.00 | 0.00 | 56 | 1009.0 |
| 20260902033926 | 82 | 170 | 0.0 | 0.0 | 0.00 | 0.00 | 0.00 | 56 | 1009.0 |
| 20260902033427 | 82 | 170 | 0.0 | 0.0 | 0.00 | 0.00 | 0.00 | 56 | 1009.0 |
| 20260902032927 | 83 | 170 | 0.0 | 0.0 | 0.00 | 0.00 | 0.00 | 56 | 1009.0 |
| 20260902032426 | 83 | 170 | 0.0 | 0.0 | 0.00 | 0.00 | 0.00 | 55 | 1009.0 |
| 20260902031928 | 83 | 170 | 0.0 | 0.0 | 0.00 | 0.00 | 0.00 | 55 | 1008.9 |
| 20260902031428 | 83 | 170 | 0.0 | 0.0 | 0.00 | 0.00 | 0.00 | 55 | 1008.8 |
| 20260902030922 | 83 | 170 | 0.0 | 0.0 | 0.00 | 0.00 | 0.00 | 54 | 1008.9 |
| 20260902030421 | 84 | 170 | 0.0 | 0.0 | 0.00 | 0.00 | 0.00 | 54 | 1008.8 |
| 20260902025919 | 84 | 170 | 0.0 | 0.0 | 0.00 | 0.00 | 0.00 | 53 | 1008.7 |
| 20260902025419 | 84 | 170 | 0.0 | 0.0 | 0.00 | 0.00 | 0.00 | 53 | 1008.6 |
| 20260902024918 | 85 | 170 | 0.0 | 0.0 | 0.00 | 0.00 | 0.00 | 52 | 1008.5 |
| 20260902024417 | 85 | 170 | 0.0 | 0.0 | 0.00 | 0.00 | 0.00 | 52 | 1008.4 |
| 20260902023915 | 85 | 170 | 0.0 | 0.0 | 0.00 | 0.00 | 0.00 | 51 | 1008.4 |
| 20260902023413 | 85 | 170 | 0.0 | 0.0 | 0.00 | 0.00 | 0.00 | 50 | 1008.3 |
| 20260902023133 | 86 | 170 | 0.0 | 0.0 | 0.00 | 0.00 | 0.00 | 50 | 1008.2 |
| 20260902022409 | 86 | 170 | 0.0 | 0.0 | 0.00 | 0.00 | 0.00 | 49 | 1008.2 |
| 20260902021907 | 87 | 170 | 0.0 | 0.0 | 0.00 | 0.00 | 0.00 | 48 | 1008.1 |
| 20260902021406 | 87 | 170 | 0.0 | 0.0 | 0.00 | 0.00 | 0.00 | 48 | 1008.0 |
| 20260902020907 | 87 | 170 | 0.0 | 0.0 | 0.00 | 0.00 | 0.00 | 47 | 1008.0 |
| 20260902020405 | 88 | 170 | 0.0 | 0.0 | 0.00 | 0.00 | 0.00 | 46 | 1007.9 |
| 20260902015904 | 88 | 170 | 0.0 | 0.0 | 0.00 | 0.00 | 0.00 | 45 | 1007.9 |
| 20260902015625 | 89 | 170 | 0.0 | 0.0 | 0.00 | 0.00 | 0.00 | 45 | 1007.8 |
| 20260902014902 | 89 | 170 | 0.0 | 0.0 | 0.00 | 0.00 | 0.00 | 44 | 1007.8 |
| 20260902014402 | 90 | 170 | 0.0 | 0.0 | 0.00 | 0.00 | 0.00 | 44 | 1007.8 |
| 20260902013858 | 90 | 170 | 0.0 | 0.0 | 0.00 | 0.00 | 0.00 | 43 | 1007.7 |
| 20260902013352 | 91 | 170 | 0.0 | 0.0 | 0.00 | 0.00 | 0.00 | 42 | 1007.7 |
| 20260902012853 | 91 | 170 | 0.0 | 0.0 | 0.00 | 0.00 | 0.00 | 41 | 1007.6 |
| 20260902012353 | 92 | 170 | 0.0 | 0.0 | 0.00 | 0.00 | 0.00 | 41 | 1007.6 |
| 20260902011853 | 92 | 170 | 0.0 | 0.0 | 0.00 | 0.00 | 0.00 | 40 | 1007.5 |
| 20260902011351 | 92 | 170 | 0.0 | 0.0 | 0.00 | 0.00 | 0.00 | 40 | 1007.5 |
| 20260902011114 | 93 | 170 | 0.0 | 0.0 | 0.00 | 0.00 | 0.00 | 39 | 1007.6 |
| 20260902010833 | 93 | 170 | 0.0 | 0.0 | 0.00 | 0.00 | 0.00 | 39 | 1007.6 |
| 20260902005845 | 94 | 170 | 0.0 | 1.0 | 0.00 | 0.00 | 0.00 | 38 | 1007.6 |
| 20260902005343 | 94 | 170 | 0.0 | 1.0 | 0.00 | 0.00 | 0.00 | 38 | 1007.6 |
| 20260902004841 | 94 | 170 | 0.0 | 1.0 | 0.00 | 0.00 | 0.00 | 37 | 1007.6 |
| 20260902004604 | 95 | 170 | 0.0 | 5.0 | 0.00 | 0.00 | 0.00 | 37 | 1007.6 |
| 20260902003841 | 95 | 170 | 0.0 | 5.0 | 0.00 | 0.00 | 0.00 | 36 | 1007.6 |
| 20260902003339 | 95 | 170 | 0.0 | 1.0 | 0.00 | 0.00 | 0.00 | 36 | 1007.6 |
| 20260902002839 | 96 | 170 | 0.0 | 1.0 | 0.00 | 0.00 | 0.00 | 35 | 1007.6 |
| 20260902002558 | 96 | 169 | 0.0 | 1.0 | 0.00 | 0.00 | 0.00 | 35 | 1007.8 |
| 20260902001838 | 96 | 170 | 0.0 | 0.0 | 0.00 | 0.00 | 0.00 | 35 | 1007.7 |
| 20260902001334 | 96 | 173 | 0.0 | 0.0 | 0.00 | 0.00 | 0.00 | 34 | 1007.8 |
| 20260902000833 | 97 | 173 | 0.0 | 1.0 | 0.00 | 0.00 | 0.00 | 34 | 1007.8 |
| 20260902000331 | 97 | 167 | 0.0 | 1.0 | 0.00 | 0.00 | 0.00 | 34 | 1007.8 |
| 20260901235830 | 97 | 159 | 0.0 | 0.0 | 0.00 | 0.00 | 0.00 | 34 | 1007.7 |
| 20260901235330 | 98 | 159 | 0.0 | 6.0 | 0.00 | 0.00 | 0.00 | 33 | 1007.8 |
| 20260901234830 | 98 | 153 | 1.0 | 11.0 | 0.00 | 0.00 | 0.00 | 33 | 1007.8 |
| 20260901234330 | 98 | 176 | 1.0 | 11.0 | 0.00 | 0.00 | 0.00 | 33 | 1007.9 |
| 20260901233831 | 98 | 163 | 0.0 | 0.0 | 0.00 | 0.00 | 0.00 | 33 | 1007.9 |
| 20260901233329 | 98 | 161 | 0.0 | 1.0 | 0.00 | 0.00 | 0.00 | 33 | 1007.9 |
| 20260901233056 | 98 | 167 | 0.0 | 1.0 | 0.00 | 0.00 | 0.00 | 33 | 1008.0 |
| 20260901232330 | 98 | 165 | 1.0 | 9.0 | 0.00 | 0.00 | 0.00 | 33 | 1008.0 |
| 20260901231830 | 99 | 178 | 1.0 | 9.0 | 0.00 | 0.00 | 0.00 | 32 | 1008.1 |
| 20260901231330 | 99 | 169 | 0.0 | 7.0 | 0.00 | 0.00 | 0.00 | 32 | 1008.0 |
| 20260901230830 | 99 | 169 | 0.0 | 9.0 | 0.00 | 0.00 | 0.00 | 32 | 1008.0 |
| 20260901230331 | 99 | 173 | 1.0 | 9.0 | 0.00 | 0.00 | 0.00 | 32 | 1008.0 |
| 20260901225830 | 99 | 163 | 1.0 | 9.0 | 0.00 | 0.00 | 0.00 | 32 | 1008.0 |
| 20260901225331 | 99 | 160 | 0.0 | 3.0 | 0.00 | 0.00 | 0.00 | 32 | 1007.9 |
| 20260901224831 | 99 | 153 | 0.0 | 9.0 | 0.00 | 0.00 | 0.00 | 33 | 1007.9 |
| 20260901224330 | 99 | 194 | 0.0 | 9.0 | 0.00 | 0.00 | 0.00 | 32 | 1008.0 |
| 20260901223831 | 99 | 150 | 0.0 | 3.0 | 0.00 | 0.00 | 0.00 | 33 | 1008.0 |
| 20260901223551 | 99 | 175 | 0.0 | 6.0 | 0.00 | 0.00 | 0.00 | 33 | 1008.0 |
| 20260901222831 | 100 | 177 | 0.0 | 6.0 | 0.00 | 0.00 | 0.00 | 32 | 1008.0 |
| 20260901222324 | 100 | 176 | 0.0 | 2.0 | 0.00 | 0.00 | 0.00 | 32 | 1008.0 |
| 20260901222038 | 100 | 176 | 0.0 | 2.0 | 0.00 | 0.00 | 0.00 | 32 | 1008.0 |
| 20260901221312 | 100 | 165 | 0.0 | 1.0 | 0.00 | 0.00 | 0.00 | 32 | 1008.0 |
| 20260901221027 | 100 | 175 | 1.0 | 12.0 | 0.00 | 0.00 | 0.00 | 32 | 1008.1 |
| 20260901220304 | 100 | 157 | 2.0 | 12.0 | 0.00 | 0.00 | 0.00 | 32 | 1008.1 |
| 20260901220026 | 100 | 172 | 1.0 | 10.0 | 0.00 | 0.00 | 0.00 | 32 | 1008.1 |
| 20260901215306 | 100 | 168 | 0.0 | 9.0 | 0.00 | 0.00 | 0.00 | 32 | 1008.1 |
| 20260901214804 | 100 | 152 | 0.0 | 5.0 | 0.00 | 0.00 | 0.00 | 32 | 1008.2 |
| 20260901214305 | 100 | 177 | 1.0 | 7.0 | 0.00 | 0.00 | 0.00 | 32 | 1008.2 |
| 20260901213805 | 100 | 196 | 1.0 | 7.0 | 0.00 | 0.00 | 0.00 | 32 | 1008.2 |
| 20260901213305 | 100 | 189 | 0.0 | 14.0 | 0.00 | 0.00 | 0.00 | 32 | 1008.3 |
| 20260901212805 | 100 | 148 | 1.0 | 14.0 | 0.00 | 0.00 | 0.00 | 32 | 1008.2 |
| 20260901212306 | 100 | 167 | 1.0 | 12.0 | 0.00 | 0.00 | 0.00 | 32 | 1008.3 |
| 20260901212250 | 100 | 184 | 1.0 | 11.0 | 0.00 | 0.00 | 0.00 | 32 | 1008.3 |
| 20260901211303 | 101 | 165 | 1.0 | 11.0 | 0.00 | 0.00 | 0.00 | 32 | 1008.4 |
| 20260901210802 | 101 | 164 | 0.0 | 5.0 | 0.00 | 0.00 | 0.00 | 31 | 1008.4 |
| 20260901210302 | 101 | 216 | 0.0 | 5.0 | 0.00 | 0.00 | 0.00 | 31 | 1008.5 |
| 20260901205802 | 101 | 169 | 0.0 | 9.0 | 0.00 | 0.00 | 0.00 | 31 | 1008.5 |
| 20260901205306 | 100 | 181 | 1.0 | 10.0 | 0.00 | 0.00 | 0.00 | 32 | 1008.6 |
| 20260901204804 | 100 | 177 | 0.0 | 10.0 | 0.00 | 0.00 | 0.00 | 31 | 1008.6 |
| 20260901204303 | 99 | 167 | 0.0 | 4.0 | 0.00 | 0.00 | 0.00 | 32 | 1008.7 |
| 20260901203801 | 98 | 167 | 0.0 | 7.0 | 0.00 | 0.00 | 0.00 | 33 | 1008.7 |
| 20260901203301 | 98 | 150 | 1.0 | 11.0 | 0.00 | 0.00 | 0.00 | 32 | 1008.8 |
| 20260901202801 | 99 | 161 | 0.0 | 11.0 | 0.00 | 0.00 | 0.00 | 31 | 1008.9 |
| 20260901202300 | 99 | 182 | 1.0 | 7.0 | 0.00 | 0.00 | 0.00 | 32 | 1009.0 |
| 20260901201801 | 99 | 186 | 1.0 | 12.0 | 0.00 | 0.00 | 0.00 | 31 | 1009.0 |
| 20260901201301 | 100 | 159 | 1.0 | 12.0 | 0.00 | 0.00 | 0.00 | 32 | 1009.0 |
| 20260901200800 | 100 | 176 | 1.0 | 14.0 | 0.00 | 0.00 | 0.00 | 31 | 1009.1 |
| 20260901200300 | 100 | 137 | 1.0 | 14.0 | 0.00 | 0.00 | 0.00 | 31 | 1009.2 |
| 20260901200025 | 100 | 178 | 0.0 | 11.0 | 0.00 | 0.00 | 0.00 | 31 | 1009.3 |
| 20260901195301 | 100 | 169 | 0.0 | 8.0 | 0.00 | 0.00 | 0.00 | 30 | 1009.4 |
| 20260901194758 | 101 | 184 | 0.0 | 2.0 | 0.00 | 0.00 | 0.00 | 31 | 1009.3 |
| 20260901194259 | 100 | 170 | 1.0 | 15.0 | 0.00 | 0.00 | 0.00 | 31 | 1009.4 |
| 20260901193804 | 100 | 174 | 1.0 | 15.0 | 0.00 | 0.00 | 0.00 | 31 | 1009.5 |
| 20260901193302 | 101 | 146 | 0.0 | 5.0 | 0.00 | 0.00 | 0.00 | 31 | 1009.5 |
| 20260901192759 | 101 | 180 | 0.0 | 10.0 | 0.00 | 0.00 | 0.00 | 31 | 1009.5 |
| 20260901192258 | 100 | 232 | 0.0 | 10.0 | 0.00 | 0.00 | 0.00 | 31 | 1009.6 |
| 20260901191759 | 100 | 120 | 0.0 | 9.0 | 0.00 | 0.00 | 0.00 | 32 | 1009.6 |
| 20260901191259 | 100 | 174 | 0.0 | 9.0 | 0.00 | 0.00 | 0.00 | 31 | 1009.7 |
| 20260901191240 | 99 | 163 | 0.0 | 10.0 | 0.00 | 0.00 | 0.00 | 32 | 1009.8 |
| 20260901190248 | 99 | 171 | 0.0 | 10.0 | 0.00 | 0.00 | 0.00 | 33 | 1009.8 |
| 20260901190007 | 98 | 179 | 0.0 | 5.0 | 0.00 | 0.00 | 0.00 | 33 | 1009.8 |
| 20260901185248 | 99 | 175 | 0.0 | 1.0 | 0.00 | 0.00 | 0.00 | 33 | 1010.0 |
| 20260901184746 | 99 | 175 | 0.0 | 1.0 | 0.00 | 0.00 | 0.00 | 34 | 1010.0 |
| 20260901184246 | 99 | 175 | 0.0 | 4.0 | 0.00 | 0.00 | 0.00 | 34 | 1010.2 |
| 20260901183746 | 99 | 177 | 0.0 | 4.0 | 0.00 | 0.00 | 0.00 | 33 | 1010.3 |
| 20260901183246 | 100 | 196 | 0.0 | 1.0 | 0.00 | 0.00 | 0.00 | 32 | 1010.4 |
| 20260901182746 | 100 | 219 | 0.0 | 0.0 | 0.00 | 0.00 | 0.00 | 33 | 1010.4 |
| 20260901182244 | 100 | 218 | 0.0 | 2.0 | 0.00 | 0.00 | 0.00 | 34 | 1010.5 |
| 20260901181745 | 100 | 218 | 0.0 | 2.0 | 0.00 | 0.00 | 0.00 | 34 | 1010.5 |
| 20260901181243 | 100 | 223 | 0.0 | 1.0 | 0.00 | 0.00 | 0.00 | 34 | 1010.4 |
| 20260901180740 | 99 | 214 | 0.0 | 3.0 | 0.00 | 0.00 | 0.00 | 34 | 1010.6 |
| 20260901180239 | 99 | 202 | 0.0 | 3.0 | 0.00 | 0.00 | 0.00 | 34 | 1010.6 |
| 20260901175738 | 99 | 172 | 0.0 | 1.0 | 0.00 | 0.00 | 0.00 | 35 | 1010.8 |
| 20260901175238 | 98 | 203 | 0.0 | 1.0 | 0.00 | 0.00 | 0.00 | 36 | 1010.8 |
| 20260901174736 | 98 | 158 | 0.0 | 7.0 | 0.00 | 0.00 | 0.00 | 35 | 1010.9 |
| 20260901174234 | 98 | 142 | 0.0 | 7.0 | 0.00 | 0.00 | 0.00 | 35 | 1011.0 |
| 20260901173734 | 98 | 163 | 0.0 | 2.0 | 0.00 | 0.00 | 0.00 | 34 | 1011.0 |
| 20260901173450 | 99 | 122 | 0.0 | 0.0 | 0.00 | 0.00 | 0.00 | 35 | 1011.0 |
| 20260901172730 | 99 | 211 | 0.0 | 0.0 | 0.00 | 0.00 | 0.00 | 35 | 1011.2 |
| 20260901172231 | 98 | 202 | 0.0 | 0.0 | 0.00 | 0.00 | 0.00 | 35 | 1011.2 |
| 20260901171730 | 98 | 220 | 0.0 | 2.0 | 0.00 | 0.00 | 0.00 | 36 | 1011.2 |
| 20260901171450 | 98 | 258 | 0.0 | 2.0 | 0.00 | 0.00 | 0.00 | 35 | 1011.3 |
| 20260901170730 | 98 | 256 | 0.0 | 1.0 | 0.00 | 0.00 | 0.00 | 35 | 1011.5 |
| 20260901170231 | 98 | 193 | 0.0 | 2.0 | 0.00 | 0.00 | 0.00 | 36 | 1011.5 |
| 20260901165730 | 98 | 193 | 0.0 | 2.0 | 0.00 | 0.00 | 0.00 | 38 | 1011.5 |
| 20260901165230 | 97 | 206 | 0.0 | 1.0 | 0.00 | 0.00 | 0.00 | 39 | 1011.6 |
| 20260901164730 | 96 | 189 | 0.0 | 1.0 | 0.00 | 0.00 | 0.00 | 39 | 1011.6 |
| 20260901164231 | 96 | 211 | 0.0 | 9.0 | 0.00 | 0.00 | 0.00 | 39 | 1011.7 |
| 20260901163731 | 96 | 242 | 0.0 | 9.0 | 0.00 | 0.00 | 0.00 | 41 | 1011.7 |
| 20260901163448 | 95 | 196 | 0.0 | 0.0 | 0.00 | 0.00 | 0.00 | 43 | 1011.8 |
| 20260901162730 | 94 | 196 | 0.0 | 0.0 | 0.00 | 0.00 | 0.00 | 45 | 1011.8 |
| 20260901162231 | 93 | 175 | 0.0 | 0.0 | 0.00 | 0.00 | 0.00 | 46 | 1011.9 |
| 20260901161730 | 93 | 176 | 0.0 | 2.0 | 0.00 | 0.00 | 0.00 | 46 | 1011.9 |
| 20260901161230 | 92 | 175 | 0.0 | 2.0 | 0.00 | 0.00 | 0.00 | 48 | 1011.9 |
| 20260901160730 | 92 | 177 | 0.0 | 4.0 | 0.00 | 0.00 | 0.00 | 50 | 1011.9 |
| 20260901160231 | 91 | 177 | 0.0 | 4.0 | 0.00 | 0.00 | 0.00 | 51 | 1011.9 |
| 20260901155730 | 90 | 176 | 0.0 | 5.0 | 0.00 | 0.00 | 0.00 | 51 | 1012.0 |
| 20260901155230 | 90 | 173 | 0.0 | 5.0 | 0.00 | 0.00 | 0.00 | 52 | 1012.0 |
| 20260901154730 | 89 | 172 | 0.0 | 4.0 | 0.00 | 0.00 | 0.00 | 52 | 1011.9 |
| 20260901154230 | 89 | 176 | 0.0 | 4.0 | 0.00 | 0.00 | 0.00 | 53 | 1011.9 |
| 20260901153730 | 89 | 167 | 0.0 | 1.0 | 0.00 | 0.00 | 0.00 | 53 | 1011.9 |
| 20260901153448 | 88 | 167 | 0.0 | 1.0 | 0.00 | 0.00 | 0.00 | 55 | 1011.9 |
| 20260901152730 | 88 | 167 | 0.0 | 8.0 | 0.00 | 0.00 | 0.00 | 53 | 1012.0 |
| 20260901152230 | 88 | 167 | 0.0 | 8.0 | 0.00 | 0.00 | 0.00 | 54 | 1011.9 |
| 20260901151953 | 88 | 168 | 0.0 | 0.0 | 0.00 | 0.00 | 0.00 | 54 | 1011.9 |
| 20260901151229 | 87 | 167 | 0.0 | 0.0 | 0.00 | 0.00 | 0.00 | 54 | 1011.9 |
| 20260901151212 | 87 | 168 | 0.0 | 0.0 | 0.00 | 0.00 | 0.00 | 54 | 1012.0 |
| 20260901150231 | 87 | 167 | 0.0 | 5.0 | 0.00 | 0.00 | 0.00 | 55 | 1011.9 |
| 20260901145732 | 86 | 167 | 0.0 | 5.0 | 0.00 | 0.00 | 0.00 | 57 | 1012.0 |
| 20260901145449 | 85 | 167 | 0.0 | 0.0 | 0.00 | 0.00 | 0.00 | 58 | 1012.0 |
| 20260901144730 | 85 | 167 | 0.0 | 0.0 | 0.00 | 0.00 | 0.00 | 57 | 1012.0 |
| 20260901144229 | 85 | 167 | 0.0 | 0.0 | 0.00 | 0.00 | 0.00 | 57 | 1012.1 |
| 20260901143731 | 84 | 167 | 0.0 | 0.0 | 0.00 | 0.00 | 0.00 | 58 | 1012.1 |
| 20260901143230 | 84 | 165 | 0.0 | 0.0 | 0.00 | 0.00 | 0.00 | 58 | 1012.1 |
| 20260901142730 | 84 | 164 | 0.0 | 0.0 | 0.00 | 0.00 | 0.00 | 58 | 1012.1 |
| 20260901142230 | 84 | 164 | 0.0 | 7.0 | 0.00 | 0.00 | 0.00 | 59 | 1012.2 |
| 20260901141731 | 83 | 165 | 0.0 | 7.0 | 0.00 | 0.00 | 0.00 | 59 | 1012.2 |
| 20260901141230 | 83 | 167 | 0.0 | 5.0 | 0.00 | 0.00 | 0.00 | 60 | 1012.2 |
| 20260901140730 | 82 | 167 | 0.0 | 5.0 | 0.00 | 0.00 | 0.00 | 61 | 1012.2 |
| 20260901140451 | 82 | 167 | 0.0 | 0.0 | 0.00 | 0.00 | 0.00 | 62 | 1012.1 |
| 20260901135730 | 81 | 165 | 0.0 | 6.0 | 0.00 | 0.00 | 0.00 | 62 | 1012.2 |
| 20260901135230 | 81 | 165 | 0.0 | 6.0 | 0.00 | 0.00 | 0.00 | 63 | 1012.1 |
| 20260901134730 | 80 | 167 | 0.0 | 1.0 | 0.00 | 0.00 | 0.00 | 64 | 1012.1 |
| 20260901134454 | 79 | 167 | 0.0 | 1.0 | 0.00 | 0.00 | 0.00 | 65 | 1012.1 |
| 20260901133731 | 79 | 167 | 0.0 | 1.0 | 0.00 | 0.00 | 0.00 | 66 | 1012.1 |
| 20260901133230 | 78 | 166 | 0.0 | 0.0 | 0.00 | 0.00 | 0.00 | 66 | 1012.1 |
| 20260901132730 | 78 | 166 | 0.0 | 0.0 | 0.00 | 0.00 | 0.00 | 67 | 1012.1 |
| 20260901132449 | 77 | 166 | 0.0 | 0.0 | 0.00 | 0.00 | 0.00 | 67 | 1012.0 |
| 20260901131731 | 77 | 166 | 0.0 | 0.0 | 0.00 | 0.00 | 0.00 | 67 | 1012.0 |
| 20260901131221 | 77 | 166 | 0.0 | 0.0 | 0.00 | 0.00 | 0.00 | 67 | 1012.0 |
| 20260901130716 | 77 | 166 | 0.0 | 0.0 | 0.00 | 0.00 | 0.00 | 67 | 1011.9 |
| 20260901130433 | 77 | 166 | 0.0 | 0.0 | 0.00 | 0.00 | 0.00 | 67 | 1011.9 |
| 20260901125703 | 77 | 166 | 0.0 | 0.0 | 0.00 | 0.00 | 0.00 | 67 | 1011.9 |
| 20260901125204 | 77 | 166 | 0.0 | 0.0 | 0.00 | 0.00 | 0.00 | 68 | 1011.9 |
| 20260901124703 | 76 | 166 | 0.0 | 0.0 | 0.00 | 0.00 | 0.00 | 68 | 1011.8 |
| 20260901124204 | 76 | 166 | 0.0 | 0.0 | 0.00 | 0.00 | 0.00 | 68 | 1011.7 |
| 20260901123704 | 76 | 166 | 0.0 | 0.0 | 0.00 | 0.00 | 0.00 | 68 | 1011.7 |
| 20260901123424 | 76 | 166 | 0.0 | 0.0 | 0.00 | 0.00 | 0.00 | 68 | 1011.6 |
| 20260901122704 | 76 | 166 | 0.0 | 0.0 | 0.00 | 0.00 | 0.00 | 68 | 1011.6 |
| 20260901122203 | 76 | 166 | 0.0 | 0.0 | 0.00 | 0.00 | 0.00 | 68 | 1011.5 |
| 20260901121703 | 76 | 166 | 0.0 | 0.0 | 0.00 | 0.00 | 0.00 | 68 | 1011.5 |
| 20260901121203 | 76 | 166 | 0.0 | 0.0 | 0.00 | 0.00 | 0.00 | 68 | 1011.4 |
| 20260901120700 | 76 | 166 | 0.0 | 0.0 | 0.00 | 0.00 | 0.00 | 68 | 1011.3 |
| 20260901120159 | 76 | 166 | 0.0 | 1.0 | 0.00 | 0.00 | 0.00 | 67 | 1011.2 |
| 20260901115657 | 76 | 166 | 0.0 | 1.0 | 0.00 | 0.00 | 0.00 | 67 | 1011.2 |
| 20260901115156 | 76 | 166 | 0.0 | 0.0 | 0.00 | 0.00 | 0.00 | 66 | 1011.1 |
| 20260901114653 | 77 | 166 | 0.0 | 0.0 | 0.00 | 0.00 | 0.00 | 66 | 1011.0 |
| 20260901114152 | 77 | 166 | 0.0 | 0.0 | 0.00 | 0.00 | 0.00 | 66 | 1010.9 |
| 20260901113651 | 77 | 165 | 0.0 | 0.0 | 0.00 | 0.00 | 0.00 | 66 | 1010.9 |
| 20260901113152 | 77 | 165 | 0.0 | 0.0 | 0.00 | 0.00 | 0.00 | 66 | 1010.9 |
| 20260901112910 | 77 | 165 | 0.0 | 0.0 | 0.00 | 0.00 | 0.00 | 66 | 1010.9 |
| 20260901112147 | 77 | 165 | 0.0 | 0.0 | 0.00 | 0.00 | 0.00 | 66 | 1010.9 |
| 20260901111641 | 77 | 165 | 0.0 | 0.0 | 0.00 | 0.00 | 0.00 | 66 | 1010.8 |
| 20260901111403 | 77 | 165 | 0.0 | 5.0 | 0.00 | 0.00 | 0.00 | 66 | 1010.8 |
| 20260901110636 | 77 | 165 | 0.0 | 5.0 | 0.00 | 0.00 | 0.00 | 65 | 1010.8 |
| 20260901110134 | 77 | 164 | 0.0 | 5.0 | 0.00 | 0.00 | 0.00 | 65 | 1010.8 |
| 20260901105853 | 77 | 166 | 0.0 | 5.0 | 0.00 | 0.00 | 0.00 | 65 | 1010.8 |
| 20260901105131 | 77 | 166 | 0.0 | 5.0 | 0.00 | 0.00 | 0.00 | 65 | 1010.7 |
| 20260901104630 | 77 | 166 | 0.0 | 5.0 | 0.00 | 0.00 | 0.00 | 65 | 1010.7 |
| 20260901104130 | 77 | 165 | 0.0 | 5.0 | 0.00 | 0.00 | 0.00 | 65 | 1010.6 |
| 20260901103630 | 77 | 165 | 0.0 | 1.0 | 0.00 | 0.00 | 0.00 | 64 | 1010.5 |
| 20260901103349 | 77 | 167 | 0.0 | 0.0 | 0.00 | 0.00 | 0.00 | 64 | 1010.5 |
| 20260901102630 | 77 | 167 | 0.0 | 2.0 | 0.00 | 0.00 | 0.00 | 64 | 1010.4 |
| 20260901102130 | 77 | 169 | 0.0 | 5.0 | 0.00 | 0.00 | 0.00 | 64 | 1010.5 |
| 20260901101631 | 77 | 165 | 0.0 | 5.0 | 0.00 | 0.00 | 0.00 | 65 | 1010.4 |
| 20260901101130 | 77 | 164 | 0.0 | 0.0 | 0.00 | 0.00 | 0.00 | 65 | 1010.3 |
| 20260901100630 | 77 | 163 | 0.0 | 7.0 | 0.00 | 0.00 | 0.00 | 65 | 1010.3 |
| 20260901100130 | 78 | 166 | 0.0 | 7.0 | 0.00 | 0.00 | 0.00 | 64 | 1010.4 |
| 20260901095631 | 78 | 165 | 0.0 | 5.0 | 0.00 | 0.00 | 0.00 | 64 | 1010.3 |
| 20260901095131 | 78 | 165 | 0.0 | 5.0 | 0.00 | 0.00 | 0.00 | 64 | 1010.3 |
| 20260901094630 | 78 | 165 | 0.0 | 0.0 | 0.00 | 0.00 | 0.00 | 64 | 1010.2 |
| 20260901094128 | 78 | 165 | 0.0 | 0.0 | 0.00 | 0.00 | 0.00 | 64 | 1010.2 |
| 20260901093623 | 77 | 165 | 0.0 | 1.0 | 0.00 | 0.00 | 0.00 | 64 | 1010.2 |
| 20260901093117 | 77 | 160 | 0.0 | 1.0 | 0.00 | 0.00 | 0.00 | 65 | 1010.2 |
| 20260901092611 | 78 | 160 | 0.0 | 1.0 | 0.00 | 0.00 | 0.00 | 65 | 1010.2 |
| 20260901092109 | 78 | 160 | 0.0 | 1.0 | 0.00 | 0.00 | 0.00 | 64 | 1010.2 |
| 20260901091609 | 78 | 160 | 0.0 | 0.0 | 0.00 | 0.00 | 0.00 | 64 | 1010.1 |
| 20260901091108 | 78 | 160 | 0.0 | 0.0 | 0.00 | 0.00 | 0.00 | 64 | 1010.1 |
| 20260901090606 | 78 | 160 | 0.0 | 0.0 | 0.00 | 0.00 | 0.00 | 63 | 1010.1 |
| 20260901090105 | 79 | 159 | 0.0 | 0.0 | 0.00 | 0.00 | 0.00 | 63 | 1010.1 |
| 20260901085605 | 79 | 159 | 0.0 | 5.0 | 0.00 | 0.00 | 0.00 | 62 | 1010.0 |
| 20260901085106 | 79 | 159 | 0.0 | 5.0 | 0.00 | 0.00 | 0.00 | 61 | 1010.0 |
| 20260901084605 | 79 | 159 | 0.0 | 5.0 | 0.00 | 0.00 | 0.00 | 61 | 1010.0 |
| 20260901084105 | 79 | 159 | 0.0 | 1.0 | 0.00 | 0.00 | 0.00 | 61 | 1010.0 |
| 20260901083604 | 79 | 156 | 0.0 | 1.0 | 0.00 | 0.00 | 0.00 | 61 | 1010.0 |
| 20260901083105 | 79 | 144 | 0.0 | 0.0 | 0.00 | 0.00 | 0.00 | 62 | 1010.0 |
| 20260901082830 | 79 | 142 | 0.0 | 0.0 | 0.00 | 0.00 | 0.00 | 61 | 1009.8 |
| 20260901082336 | 79 | 142 | 0.0 | 0.0 | 0.00 | 0.00 | 0.00 | 61 | 1009.8 |
| 20260901081605 | 79 | 142 | 0.0 | 0.0 | 0.00 | 0.00 | 0.00 | 61 | 1009.8 |
| 20260901081105 | 79 | 141 | 0.0 | 0.0 | 0.00 | 0.00 | 0.00 | 61 | 1009.8 |
| 20260901080605 | 79 | 141 | 0.0 | 0.0 | 0.00 | 0.00 | 0.00 | 62 | 1009.8 |
| 20260901080106 | 79 | 141 | 0.0 | 0.0 | 0.00 | 0.00 | 0.00 | 62 | 1009.8 |
| 20260901075828 | 79 | 141 | 0.0 | 0.0 | 0.00 | 0.00 | 0.00 | 62 | 1009.9 |
| 20260901075101 | 79 | 141 | 0.0 | 0.0 | 0.00 | 0.00 | 0.00 | 62 | 1009.9 |